Theta_e
304 304 304 304 304 304 304 304 304 305 304 304 304 303 303 304 304 305 306 306 306 305 304 303 303 303 302 302 302 301 300 300 300 299 299 299 298 298 298 297 298 298 298 298 297 297 297 297 298 298 297 297 297 298 297 297 297 296 296 295 294 295 295 293 289 282 278 280 281 280 279 279 278 278 278 278 277 277 277 278 280 281 282 282 281
304 305 304 304 304 304 305 305 304 304 304 303 303 303 304 304 305 306 305 305 305 304 303 303 302 302 302 302 302 301 300 300 299 299 299 298 298 297 297 297 297 297 297 297 297 297 297 296 297 297 296 296 296 296 297 296 296 295 294 294 294 294 294 292 287 280 277 278 279 279 278 278 278 277 276 277 276 276 276 277 278 279 280 280 280
304 305 304 304 305 304 305 305 304 304 304 304 304 303 304 304 305 305 305 304 304 303 303 302 302 302 302 302 301 301 301 300 299 299 298 298 297 297 297 296 296 296 296 297 297 296 296 295 295 295 295 295 294 294 295 295 295 295 294 293 294 293 293 293 289 282 277 275 277 277 276 276 277 276 275 275 275 275 275 276 277 278 278 278 278
304 304 304 304 304 304 304 304 304 304 304 304 304 304 305 305 304 304 304 303 303 302 302 302 302 302 301 302 301 301 301 299 299 298 298 298 297 297 297 296 296 296 296 297 296 296 296 295 295 294 293 293 293 293 293 294 294 294 294 293 293 293 292 292 291 287 280 276 275 275 275 275 276 275 274 273 273 273 274 274 275 276 277 277 276
304 304 304 304 304 303 304 304 304 304 304 304 304 304 305 304 304 304 303 303 303 302 302 302 302 302 301 302 301 301 300 299 298 298 297 297 296 296 296 295 296 296 296 296 296 295 295 295 294 294 293 292 292 292 292 292 292 292 292 292 291 292 291 290 290 289 284 279 275 274 275 275 275 274 274 273 273 272 272 273 273 274 275 275 275
304 304 304 304 304 303 303 303 303 304 304 304 304 305 305 304 304 304 303 303 303 302 302 302 301 301 302 301 301 300 299 298 297 297 296 296 295 295 295 294 295 295 295 295 294 294 294 294 294 293 292 292 292 292 291 291 291 291 290 291 290 290 290 289 288 287 285 281 277 274 274 274 274 273 273 273 273 272 272 271 271 272 273 273 273
304 304 304 303 303 303 303 303 304 304 304 305 304 304 304 304 304 304 303 303 303 302 301 301 301 301 301 301 300 299 299 298 297 296 295 295 294 294 294 293 293 293 293 293 293 293 293 293 293 292 292 292 292 291 291 290 290 290 289 289 289 288 287 287 286 285 283 280 277 274 273 273 273 273 272 272 273 273 272 271 271 271 271 272 272
303 303 303 302 302 302 303 303 303 304 304 304 304 304 303 303 303 303 303 302 302 302 301 301 301 301 300 300 300 299 297 296 296 295 294 294 293 293 292 292 292 292 292 292 292 292 292 292 292 292 291 291 291 291 291 290 289 289 288 288 287 286 286 284 283 282 281 278 276 274 272 272 272 272 272 271 271 271 272 272 271 271 271 271 271
302 302 302 302 303 303 303 303 303 303 303 303 303 303 303 303 303 302 302 302 301 302 301 301 301 300 300 299 298 297 296 295 295 294 294 293 292 292 292 291 291 290 290 290 290 290 290 290 290 290 290 290 290 289 289 289 289 288 288 287 286 285 284 283 282 280 279 277 275 273 272 271 271 271 271 270 270 271 271 271 271 271 270 270 270
302 302 302 303 304 303 303 303 303 303 303 302 303 302 302 302 302 301 301 301 301 301 300 300 299 299 298 297 296 296 295 295 295 294 294 293 292 292 291 290 290 289 289 289 289 289 289 289 289 289 289 288 288 288 288 287 287 287 287 287 285 284 283 282 281 280 278 276 274 273 272 271 271 271 270 270 270 271 270 270 271 270 269 269 269
302 302 302 303 303 303 302 302 302 302 302 302 302 301 301 301 300 300 300 300 300 299 299 298 298 298 297 297 296 295 295 295 295 294 294 293 292 291 290 290 289 288 288 288 288 288 288 288 287 287 287 287 287 287 286 286 286 286 286 285 285 284 284 282 280 279 278 277 275 274 273 272 271 271 271 270 270 270 270 270 270 270 269 270 269
302 302 302 302 301 301 301 301 301 301 301 301 300 300 300 300 300 299 299 299 299 298 298 298 297 297 296 296 295 294 294 294 294 294 293 292 291 291 290 289 288 287 287 287 287 287 286 286 286 285 285 285 285 285 285 284 284 284 284 284 283 283 283 283 282 280 279 277 275 274 273 273 271 271 271 271 270 270 270 270 270 270 270 271 270
302 302 301 301 300 301 301 300 300 300 300 300 300 299 299 299 299 299 299 299 298 297 297 297 296 296 295 294 294 294 293 294 293 293 292 291 291 290 289 288 288 287 287 286 286 286 285 285 284 284 284 284 284 284 283 283 282 282 282 281 281 281 281 281 281 281 280 279 276 275 274 274 272 271 271 271 270 270 270 270 270 270 270 271 270
301 301 301 301 301 300 300 300 300 300 300 300 299 299 299 299 299 299 298 297 296 296 296 296 295 295 294 294 293 293 293 293 292 292 292 291 290 289 288 288 287 287 286 286 286 285 285 284 284 283 283 283 282 282 282 282 281 280 280 279 279 279 279 279 279 279 279 279 278 276 275 274 274 273 271 271 271 271 270 270 270 270 270 270 270
300 301 301 301 301 300 300 300 300 300 299 299 298 298 298 298 298 297 296 296 296 296 295 295 294 294 293 293 292 292 292 292 292 291 291 290 289 289 288 287 286 286 285 285 285 284 284 284 283 283 283 282 282 282 281 281 280 279 279 278 278 278 277 277 277 277 277 277 276 276 275 274 274 273 272 271 271 271 271 270 270 270 269 269 269
299 300 300 300 300 299 299 299 299 299 298 297 297 297 297 297 296 296 295 295 295 294 294 294 293 292 292 292 291 291 291 291 291 291 290 289 289 288 288 287 286 285 284 284 284 284 284 283 283 283 282 282 281 281 280 280 279 278 278 277 277 277 276 276 276 276 276 276 275 275 275 274 274 273 272 272 271 271 271 270 270 269 269 268 268
298 298 298 298 298 298 298 298 297 297 296 296 296 296 296 296 295 295 294 293 293 293 293 292 292 292 291 291 290 290 290 290 290 290 289 289 288 288 287 287 285 284 283 283 283 283 283 283 282 282 281 281 280 280 279 279 278 278 277 276 276 276 275 275 275 275 275 275 274 274 274 273 273 272 272 271 271 271 271 270 269 269 269 268 267
296 296 296 296 296 296 297 297 297 296 296 296 296 296 295 295 295 294 293 293 293 293 292 291 291 291 290 290 290 290 289 289 289 289 288 288 288 288 287 287 285 284 283 282 282 282 282 281 281 281 280 280 280 279 279 278 278 277 276 275 275 275 274 274 274 274 274 273 273 273 273 272 272 271 271 271 270 270 270 270 270 269 268 268 267
295 296 296 296 296 297 296 296 296 296 296 296 296 296 295 295 294 293 293 292 292 292 291 290 290 290 290 289 289 289 289 288 288 288 288 287 287 287 287 286 285 283 282 281 281 280 280 280 279 280 280 279 279 279 279 278 277 277 276 275 275 274 274 274 274 273 273 272 272 272 272 272 271 271 271 271 270 270 270 270 270 269 269 268 267
296 296 297 297 297 297 296 296 296 296 296 296 296 295 295 294 293 293 292 292 291 291 290 290 289 289 289 288 288 288 288 287 287 287 287 287 287 287 287 286 284 283 281 281 280 279 279 279 278 278 278 279 279 279 279 278 277 277 276 276 275 274 274 274 273 273 272 272 272 272 272 271 271 271 271 271 270 270 270 270 269 269 269 268 267
296 296 296 296 296 296 296 296 295 295 295 295 295 294 293 293 292 292 291 291 290 289 289 288 288 288 287 287 287 287 287 286 286 286 286 286 286 286 287 286 285 283 281 280 279 279 278 278 278 278 278 278 279 280 279 278 277 276 276 276 276 275 274 273 273 272 272 272 271 271 271 271 271 271 271 270 270 269 269 269 268 268 268 267 267
294 294 294 294 294 294 294 294 294 294 294 294 293 293 292 292 292 291 290 290 289 288 288 287 287 286 286 286 285 285 285 285 285 285 285 285 285 286 286 286 285 283 282 280 279 279 279 278 278 278 278 278 279 280 280 279 277 276 276 275 275 275 274 273 272 271 271 271 270 270 270 270 270 269 269 268 268 268 267 267 267 266 266 266 266
292 292 292 293 292 292 292 292 292 292 292 292 292 292 291 291 290 290 289 288 288 287 286 286 285 285 284 284 284 284 284 284 284 284 284 284 285 286 286 286 285 283 282 280 279 279 279 278 278 278 278 278 279 280 280 280 278 276 275 275 275 274 274 272 272 271 270 270 269 268 268 269 269 268 267 267 267 267 266 265 265 265 265 264 264
290 290 290 290 290 290 290 290 290 291 291 290 290 290 290 289 289 288 288 287 286 285 285 284 284 283 283 282 282 282 283 283 283 283 283 283 284 285 286 286 285 284 282 281 280 279 278 278 278 278 278 279 279 280 280 280 278 276 275 275 275 274 273 272 271 271 270 269 268 267 268 268 268 267 267 267 266 266 265 264 264 263 263 263 263
288 288 288 288 288 288 288 288 288 288 288 288 288 288 288 288 287 287 286 286 285 284 283 283 283 282 282 281 281 281 281 281 282 282 282 282 283 284 285 286 285 284 282 281 280 279 278 278 278 278 278 279 279 279 280 280 279 276 275 275 275 274 272 271 271 270 269 268 267 267 267 267 267 267 267 266 266 265 264 264 263 263 262 262 262
286 286 286 285 286 286 286 286 286 286 286 286 286 286 286 285 285 285 285 284 283 283 282 282 282 281 281 281 281 280 280 280 280 281 281 281 282 282 284 285 285 284 282 281 279 278 278 278 277 277 278 278 279 279 279 280 279 277 275 275 274 273 272 271 270 269 268 268 267 266 266 266 266 266 266 266 265 264 264 263 262 262 262 262 261
284 283 283 283 283 283 283 283 283 283 284 284 284 284 283 283 283 283 283 283 282 282 282 282 281 281 280 280 280 280 279 279 279 280 280 281 281 282 282 284 285 283 281 279 278 277 277 277 277 277 277 278 278 278 278 279 279 276 275 275 274 273 272 271 270 269 268 268 267 266 266 265 265 265 265 265 264 264 263 263 262 262 261 261 260
281 280 280 280 280 280 280 280 281 281 281 281 281 281 281 281 281 281 281 281 281 280 280 281 280 280 280 280 279 278 278 278 278 279 280 280 280 281 281 282 283 282 280 278 278 277 277 277 277 277 277 277 278 278 278 278 278 276 275 274 273 272 271 270 269 269 268 268 267 266 266 265 265 265 265 264 264 263 262 262 262 261 261 260 260
279 279 279 279 278 278 278 278 278 279 279 279 278 279 279 279 279 279 279 279 279 279 279 279 279 279 279 279 279 278 277 278 278 279 279 279 280 280 280 281 282 281 279 278 277 277 276 276 276 276 276 276 277 277 277 277 276 274 274 273 272 271 270 269 268 268 268 267 267 266 265 265 265 265 265 264 263 263 262 262 261 261 260 259 259
278 277 277 277 277 277 277 277 277 277 277 277 277 277 277 277 277 278 278 278 278 278 278 278 278 278 278 278 279 278 278 278 278 278 279 279 279 279 280 280 281 280 279 278 277 276 275 275 275 275 275 275 276 276 276 275 274 273 273 272 271 270 269 268 268 268 267 267 266 266 266 266 265 265 264 263 263 262 261 261 261 260 260 259 258
275 275 275 275 275 275 275 275 275 275 276 276 276 276 276 276 276 276 276 277 277 277 277 277 277 277 277 277 278 278 278 278 278 277 278 278 278 279 279 280 280 279 278 277 276 275 275 275 275 275 275 275 275 275 275 274 272 271 271 270 269 269 268 268 268 267 267 266 266 266 266 266 265 264 264 263 262 262 261 260 260 259 259 259 258
272 272 272 273 273 273 274 274 274 274 274 274 274 274 274 274 275 275 275 275 275 275 276 276 277 277 277 277 277 277 277 277 277 277 277 277 278 278 279 280 280 279 278 277 275 274 274 274 274 274 274 274 274 274 274 273 271 270 269 268 268 268 268 267 267 267 266 266 266 266 266 265 265 264 263 263 262 261 260 259 259 259 258 258 257
270 270 271 271 271 272 272 272 272 272 272 272 272 272 272 272 272 273 274 274 274 274 274 275 275 276 276 276 276 276 276 276 276 276 276 277 277 278 278 279 279 279 279 277 275 273 274 274 273 274 274 273 273 273 273 272 271 269 268 268 267 267 267 266 266 266 266 266 267 266 265 265 264 263 263 262 261 261 260 259 259 258 257 256 256
269 269 269 270 270 270 270 270 270 270 271 271 271 271 271 271 271 271 271 272 272 273 273 273 274 274 274 275 275 275 276 275 275 276 276 276 277 277 277 278 279 279 279 278 275 273 273 273 273 273 273 273 273 273 272 271 270 269 268 267 266 266 266 265 265 266 266 266 266 265 265 264 264 263 262 261 260 260 259 259 258 257 257 256 256
268 268 268 268 268 268 269 269 269 269 269 269 269 269 269 270 270 270 270 270 270 270 271 271 272 272 273 273 274 274 275 275 275 275 275 275 276 277 277 277 278 278 278 278 275 273 273 273 272 272 273 272 272 272 271 270 269 268 267 266 266 265 265 264 264 265 266 265 265 265 264 264 263 263 262 261 260 259 259 258 258 258 257 257 256
267 267 267 267 267 267 267 267 267 268 268 268 268 268 268 268 268 268 269 269 269 269 269 270 270 271 272 272 273 273 274 274 274 274 274 274 275 276 276 276 277 277 277 277 275 273 272 272 272 272 272 272 271 271 270 269 268 268 267 266 265 264 264 264 264 264 265 265 264 264 264 264 263 263 262 261 261 260 259 259 259 258 258 257 256
266 266 266 266 266 267 267 267 267 267 267 267 267 267 267 267 267 267 267 267 267 267 268 268 269 269 270 271 271 271 272 273 273 273 273 273 274 275 275 275 275 275 275 275 274 273 272 272 272 271 271 271 271 270 269 269 268 267 266 265 265 264 264 264 264 264 264 264 264 264 264 263 263 262 262 261 260 260 259 259 259 258 258 257 256
265 265 265 265 266 266 266 266 266 266 266 266 266 266 266 266 266 266 266 266 266 266 266 267 267 267 267 268 269 269 270 271 272 272 272 273 273 273 273 274 274 275 275 274 273 272 272 271 271 271 271 270 270 269 269 268 267 267 266 265 265 265 264 264 264 264 264 264 263 263 263 263 262 262 261 260 260 259 259 259 258 257 257 256 256
265 264 264 265 265 265 265 265 265 265 265 265 265 265 265 264 264 264 264 264 265 265 265 265 265 265 265 266 267 267 268 268 269 270 270 271 272 271 272 272 273 273 273 273 273 272 271 271 270 270 270 269 269 269 268 267 267 266 266 265 265 264 264 264 263 263 263 263 263 263 262 262 262 261 261 260 260 260 259 259 258 257 256 256 256
264 264 264 264 264 264 264 264 263 263 263 263 263 263 263 263 263 263 263 263 263 263 263 264 264 264 264 265 265 265 266 266 267 267 268 269 269 270 270 270 271 271 272 272 272 271 271 270 270 270 269 269 268 268 268 267 267 267 266 266 265 265 264 264 264 263 263 263 263 262 262 261 261 261 260 260 260 260 259 259 258 257 257 256 256
263 263 263 263 263 263 263 263 262 262 262 262 262 262 262 262 262 262 262 262 262 262 262 262 263 263 263 263 264 264 264 264 265 266 266 267 267 268 268 268 268 269 269 270 270 270 270 270 269 269 269 268 268 268 268 267 267 267 266 266 265 265 264 264 264 263 263 263 262 262 262 261 261 260 260 260 259 259 258 258 257 257 256 256 256
261 261 261 261 262 262 261 261 261 261 261 261 261 261 261 261 261 261 261 261 261 261 261 261 262 262 262 262 262 263 263 263 263 264 264 265 265 266 266 266 267 267 267 268 268 268 269 269 269 268 268 268 268 268 267 267 267 266 266 265 265 264 264 263 263 263 263 262 262 262 262 261 261 260 260 260 259 258 257 257 256 256 256 255 255
260 260 260 260 260 260 260 260 260 260 260 260 260 260 260 260 260 260 260 260 260 260 260 260 261 261 261 261 261 261 261 262 262 262 263 263 263 264 264 264 265 265 265 265 266 266 267 267 267 267 267 267 267 267 267 267 267 266 266 265 264 264 263 263 262 262 262 262 262 262 261 261 260 260 259 258 258 257 257 256 256 255 255 255 254
260 260 260 260 260 260 260 260 259 259 259 259 259 260 260 259 259 259 259 259 259 259 259 259 259 260 260 260 260 260 260 260 261 261 261 261 262 262 262 263 263 263 263 264 264 264 265 265 265 265 266 266 266 266 266 266 266 266 265 265 264 264 263 263 263 263 263 263 262 261 261 260 259 259 258 258 257 257 256 256 255 255 254 254 254
259 259 259 259 259 259 259 259 258 258 259 259 259 259 259 258 258 258 258 258 258 258 258 259 259 259 259 259 259 259 259 259 259 259 260 260 260 260 261 261 261 261 262 262 262 263 263 263 263 264 264 264 264 265 265 265 265 265 265 265 265 264 264 264 264 264 263 263 262 261 260 260 259 259 258 257 257 256 256 255 255 254 254 254 253
258 258 258 258 258 258 258 258 258 258 258 257 257 257 257 257 257 257 257 257 257 257 257 257 258 258 258 258 258 258 258 258 258 258 258 259 259 259 259 259 260 260 260 260 261 261 261 261 262 262 262 262 263 263 263 263 263 264 264 264 264 264 264 264 263 263 262 262 261 261 260 259 259 258 257 257 256 256 255 255 255 254 254 253 253
258 257 257 257 257 257 257 257 257 257 257 257 256 256 256 256 257 256 256 257 257 257 257 257 257 257 257 257 257 257 257 257 257 257 258 258 258 258 258 258 258 259 259 259 259 259 259 260 260 260 261 261 261 261 262 262 262 262 262 262 262 262 262 262 262 261 261 261 260 260 259 259 258 257 257 256 255 255 255 254 254 254 253 253 252
257 257 257 256 256 256 256 256 256 256 256 255 255 255 255 255 255 256 256 256 256 256 256 256 256 256 256 256 256 256 257 257 257 257 257 257 257 257 257 257 257 258 258 258 258 258 258 258 259 259 259 259 260 260 260 260 260 261 261 261 261 260 260 260 260 260 260 259 259 259 258 258 257 257 256 256 255 255 255 254 254 253 253 252 252
256 256 255 255 255 255 255 254 254 254 254 254 254 254 254 254 254 254 254 254 254 255 255 255 255 255 255 255 255 256 256 256 256 256 256 256 256 256 256 257 257 257 257 257 257 257 257 257 258 258 258 258 258 259 259 259 259 259 259 259 259 259 259 259 259 259 258 258 258 258 257 257 257 256 256 256 255 255 254 254 253 253 252 252 251
255 255 254 254 254 254 253 253 253 253 253 253 253 253 253 253 253 253 253 253 253 253 254 254 254 254 254 254 254 255 255 255 255 255 255 256 256 256 256 256 256 256 256 256 256 256 257 257 257 257 257 257 257 258 258 258 258 258 258 258 258 258 258 258 258 258 257 257 257 257 256 256 256 256 255 255 255 254 254 253 253 252 252 251 251
253 253 253 253 252 252 252 252 252 252 252 252 251 251 251 251 252 252 252 252 252 252 253 253 253 253 253 253 253 254 254 254 254 254 254 255 255 255 255 255 255 255 255 255 255 256 256 256 256 256 256 256 257 257 257 257 257 258 257 257 257 257 257 257 257 257 257 257 256 256 256 256 256 255 255 254 254 253 253 253 252 252 251 251 250
Wind_Speed
32 34 35 36 36 35 36 37 38 39 39 38 38 39 38 38 38 38 37 37 36 35 35 34 33 33 32 32 32 32 32 32 31 31 31 31 30 30 30 29 29 29 28 27 27 27 27 27 27 27 26 26 28 29 31 32 32 33 33 31 29 24 22 18 10 8 12 19 23 23 23 22 19 17 17 17 18 18 18 18 19 20 20 18 15
34 35 35 35 36 37 38 38 38 38 38 39 39 39 40 40 40 39 38 37 36 35 35 34 34 34 33 33 33 33 33 33 33 33 33 33 33 32 32 31 31 31 30 30 30 29 28 28 28 28 28 27 28 29 31 32 32 34 34 32 30 27 24 20 14 11 12 18 24 25 25 24 22 19 18 19 19 20 20 21 21 21 20 19 17
33 32 33 34 35 37 37 38 37 37 38 39 40 40 41 41 40 39 38 37 36 36 35 35 34 34 33 34 34 34 35 35 35 36 36 36 36 35 35 34 34 34 34 33 33 31 31 31 30 30 29 29 29 29 30 32 32 34 34 33 30 28 25 23 17 15 19 22 24 28 28 25 23 22 20 19 20 21 22 22 22 22 21 19 18
31 31 31 33 34 34 36 36 36 37 38 38 39 40 40 39 38 38 37 36 35 35 35 35 35 34 35 35 35 36 37 37 37 38 38 38 38 38 37 36 36 36 36 36 35 35 34 33 33 32 31 30 30 30 30 31 32 33 34 33 31 28 26 25 21 20 24 25 24 29 31 26 24 24 23 21 21 21 22 22 23 22 21 20 19
31 31 32 33 33 34 34 35 35 37 37 38 38 38 38 38 37 36 36 35 36 36 36 35 35 35 36 37 37 38 38 38 38 39 39 39 38 38 38 38 38 38 38 37 37 36 36 36 35 33 33 32 32 32 32 32 32 32 33 32 30 28 27 26 23 22 25 28 27 28 28 26 24 25 25 24 23 22 21 21 22 22 21 20 18
31 31 32 33 34 35 34 34 34 35 36 37 37 36 36 36 36 36 36 36 37 36 36 35 35 36 37 37 37 37 37 37 38 39 39 39 38 38 38 38 38 38 38 38 37 37 37 36 36 35 35 35 35 34 34 33 33 32 32 32 30 28 28 27 25 23 25 29 31 30 29 28 26 25 26 26 26 25 23 21 20 20 21 20 18
29 30 31 32 32 32 33 34 34 35 36 36 36 35 35 35 35 35 35 35 35 35 35 34 35 35 36 37 37 37 37 38 39 39 39 39 39 39 38 38 38 38 38 38 37 37 37 36 37 36 37 37 36 36 35 34 34 33 32 31 30 29 28 27 26 24 25 29 30 30 30 29 27 27 27 26 25 25 25 23 20 19 20 20 19
26 27 28 28 29 30 31 32 33 34 34 34 34 34 34 34 34 34 34 34 34 35 35 35 35 36 37 37 37 37 37 38 39 39 39 39 39 39 39 38 38 37 37 37 37 37 37 37 37 37 37 37 37 36 36 35 34 33 32 31 30 29 28 27 26 25 27 30 29 29 30 28 27 26 26 26 24 23 25 26 23 22 21 19 18
25 25 26 28 30 31 31 31 32 32 32 32 33 33 34 34 34 34 34 35 35 35 35 35 36 36 37 37 37 37 37 39 40 40 40 39 39 39 39 38 37 37 36 36 36 37 37 37 38 37 37 36 36 35 35 35 34 34 33 32 31 30 28 28 27 26 27 29 29 28 27 27 28 29 29 31 30 26 26 25 21 21 21 17 15
26 26 28 31 32 32 31 31 32 32 32 33 33 34 33 33 33 34 34 35 35 34 34 34 35 36 36 36 36 37 38 39 40 40 40 41 40 39 39 38 38 37 37 36 37 38 38 38 38 38 37 36 35 35 34 33 33 33 34 34 34 33 31 29 29 29 31 33 32 31 29 27 31 34 33 32 29 26 26 25 20 19 18 14 10
27 28 30 32 31 30 30 30 30 31 32 32 32 32 31 31 31 32 33 33 33 32 32 33 35 35 35 36 36 38 39 40 40 40 41 41 40 39 39 38 38 38 37 37 38 38 39 38 38 37 36 35 35 35 34 33 33 33 33 33 34 34 34 32 31 32 34 34 34 35 33 30 31 33 31 29 28 26 26 26 23 22 20 13 8
26 28 30 29 27 27 27 27 28 29 29 29 29 28 28 28 30 31 32 32 32 31 32 34 35 35 35 36 36 37 38 39 39 40 40 41 40 40 39 38 37 38 38 38 38 38 38 37 37 36 36 36 36 35 34 33 33 33 32 31 32 33 34 34 33 33 35 34 33 34 33 29 30 32 31 31 30 27 25 24 24 25 22 15 11
27 28 27 26 25 25 25 26 27 28 28 28 27 27 27 29 31 32 33 32 31 31 33 34 34 35 35 35 36 37 37 38 38 39 39 39 40 39 39 38 38 38 38 38 38 38 37 37 36 36 36 35 35 34 33 32 31 31 30 30 30 31 32 32 32 34 36 37 36 34 32 31 33 34 34 33 32 29 26 24 23 24 21 16 14
26 27 26 25 25 25 25 26 28 28 27 27 26 27 29 31 32 32 32 30 30 32 33 33 34 34 35 35 35 35 36 37 37 37 38 38 39 39 39 38 38 37 38 38 38 38 38 37 37 36 36 35 34 33 32 31 30 29 28 27 28 28 28 27 29 30 32 35 36 35 33 34 34 34 34 33 32 31 29 26 24 22 20 17 15
26 27 27 27 27 27 27 28 28 28 27 26 27 28 30 32 32 31 30 30 31 32 32 33 33 33 33 33 34 34 35 36 36 36 37 37 37 37 37 37 37 36 36 37 38 38 38 38 38 38 36 35 35 34 33 32 30 28 26 25 25 24 23 23 25 27 28 30 32 31 31 31 31 31 32 31 30 29 28 25 23 20 18 16 13
26 27 28 28 28 28 28 28 28 27 26 25 26 29 30 31 30 29 28 28 29 30 30 31 31 31 31 31 32 34 34 33 34 35 35 35 35 35 35 35 35 35 35 35 36 37 38 38 38 37 36 35 34 34 33 33 30 28 26 24 22 22 21 21 22 24 25 26 26 26 26 27 28 28 29 30 29 26 24 21 19 19 18 14 11
26 25 25 25 24 24 25 25 25 25 23 24 26 28 28 28 27 26 26 26 28 29 30 30 29 29 30 30 31 33 33 31 32 33 33 34 34 33 33 33 34 34 34 34 35 36 37 37 36 35 34 34 33 32 32 32 31 29 27 25 23 22 20 19 20 21 22 23 22 22 22 23 24 24 25 26 26 25 25 23 20 21 19 13 8
19 17 17 17 17 18 20 22 22 22 22 24 26 27 26 25 25 25 25 26 27 28 28 28 28 29 29 30 31 32 31 30 31 32 32 33 33 33 32 32 32 32 31 31 32 33 34 34 34 34 34 34 32 31 31 33 32 31 30 28 26 24 22 21 21 20 19 19 18 18 18 19 20 21 21 22 21 22 23 22 20 21 20 14 9
13 13 14 14 15 15 17 19 20 22 23 24 25 25 24 24 23 23 24 25 26 26 25 26 27 28 28 29 30 30 30 30 29 30 31 31 32 33 32 30 29 29 29 29 29 30 31 31 32 34 34 33 32 30 30 33 35 35 34 33 30 28 27 27 26 24 22 21 20 20 20 20 21 20 19 18 18 18 19 18 18 19 19 16 14
12 13 13 12 13 13 13 15 19 21 22 22 22 22 22 22 21 21 23 24 24 24 24 25 26 27 27 28 28 29 29 29 28 28 29 30 31 32 32 31 30 29 29 30 29 29 30 31 31 33 34 33 33 31 29 32 36 37 37 37 35 32 31 29 28 28 27 26 25 25 25 25 25 24 22 20 19 18 17 16 17 18 17 17 17
10 10 9 8 9 10 10 12 16 17 18 19 19 20 19 19 20 20 21 21 22 23 23 24 25 25 25 25 26 27 28 27 27 27 28 29 30 31 33 34 32 30 30 32 33 33 33 34 33 33 34 34 34 33 30 30 34 37 38 38 36 34 32 31 29 28 29 28 27 27 27 28 27 26 24 23 21 18 16 15 16 16 16 16 18
6 6 6 5 6 6 7 10 12 13 14 15 16 17 17 17 18 19 19 20 20 22 22 22 23 24 23 23 24 25 26 26 27 27 27 28 30 31 33 35 34 32 31 32 35 36 36 37 36 34 33 32 33 33 30 28 30 35 37 36 32 30 32 31 29 28 29 29 28 28 28 29 28 27 24 22 19 17 16 15 15 16 16 16 17
5 5 5 5 5 5 6 7 8 10 11 12 13 15 15 15 16 17 18 19 19 20 20 20 20 21 21 21 22 23 23 24 25 26 26 26 28 30 32 33 34 33 32 33 35 37 37 37 37 35 32 30 31 32 31 29 29 33 35 32 28 27 30 30 29 29 30 29 28 28 29 30 29 27 24 21 18 16 15 14 15 16 16 15 15
5 5 5 5 5 5 6 6 7 7 8 10 11 12 13 14 15 15 16 17 17 18 18 17 18 18 19 19 20 20 21 22 22 24 24 25 27 28 29 33 35 35 34 33 33 35 36 36 36 36 34 31 30 31 31 30 30 32 31 28 26 27 30 31 30 30 30 29 28 29 31 31 30 27 24 20 16 14 13 13 13 13 13 14 14
5 5 5 6 6 6 6 6 6 6 6 7 9 10 11 12 13 13 14 15 15 16 16 15 16 17 17 16 17 17 18 19 20 22 23 24 26 27 28 31 33 33 35 34 31 32 35 36 36 36 34 30 29 30 31 30 30 30 30 29 28 29 31 32 32 32 30 29 29 30 30 31 29 26 21 17 14 13 11 11 12 12 13 13 13
6 6 6 7 6 6 6 6 5 5 5 5 6 7 8 9 10 11 11 13 14 14 14 14 14 15 14 14 14 14 15 17 18 19 20 22 25 27 28 30 30 29 31 30 28 28 31 34 35 34 33 31 30 30 31 30 30 29 30 32 33 33 34 35 35 32 30 28 27 26 27 27 25 22 19 16 13 11 10 11 12 12 13 13 13
7 8 8 8 8 7 7 6 6 6 5 5 4 4 5 6 7 8 9 11 12 12 12 12 12 12 12 12 12 12 13 14 16 17 19 22 25 27 28 29 28 26 25 25 24 25 29 32 32 31 30 30 29 29 29 28 28 29 31 34 36 37 36 36 36 32 28 26 25 24 25 26 23 20 18 15 12 11 12 12 13 13 14 14 14
9 10 9 9 9 9 9 9 8 8 7 6 5 4 3 3 3 3 4 5 7 8 9 10 10 10 11 11 10 10 11 13 16 18 20 22 24 24 25 25 25 24 25 25 24 25 27 28 28 26 25 26 26 26 26 26 27 30 33 33 35 36 34 32 31 29 27 26 26 26 26 25 23 20 18 15 13 13 13 13 14 15 15 15 15
10 11 11 11 11 11 11 11 10 9 8 7 6 6 6 5 3 2 2 4 4 5 6 8 9 9 10 11 11 10 12 15 17 19 20 21 22 23 24 24 24 25 26 26 26 25 24 24 24 24 24 24 24 23 22 23 25 29 30 31 33 34 33 32 31 30 28 28 28 28 27 25 22 20 17 16 15 15 15 15 16 16 16 16 17
11 12 13 13 13 12 12 11 11 10 8 7 5 5 6 6 6 5 4 6 6 5 6 8 9 9 10 11 12 13 15 17 18 18 18 19 21 22 23 23 24 25 26 25 25 25 24 23 23 23 23 23 23 22 21 21 24 26 27 29 32 33 33 32 32 32 30 30 29 28 26 24 22 20 18 17 16 16 16 17 17 17 17 18 18
12 13 14 14 13 13 13 12 11 10 10 9 7 6 6 6 7 7 7 7 7 7 6 7 7 8 9 11 12 13 15 16 16 16 16 17 19 19 20 21 22 23 24 24 24 23 22 21 20 21 22 22 22 22 21 21 24 26 26 27 29 31 32 32 31 32 31 30 29 27 25 23 22 21 20 19 18 18 18 17 17 18 19 19 19
13 14 14 15 15 15 14 14 14 13 12 12 11 10 10 9 8 8 9 8 8 8 7 7 6 6 7 8 9 10 11 12 13 13 14 15 17 18 19 20 21 22 25 26 25 23 22 21 20 21 21 21 21 23 22 22 24 26 26 27 28 29 31 31 32 33 33 31 30 28 26 25 24 23 21 20 19 19 19 19 19 19 19 19 20
16 16 16 16 16 16 16 15 15 14 14 13 13 12 12 11 10 11 12 12 11 10 9 8 8 8 7 7 7 8 9 9 10 11 12 13 16 17 18 20 21 22 25 27 23 20 21 21 20 21 22 21 22 23 23 23 24 25 26 28 29 29 29 29 30 31 32 32 31 29 28 26 25 23 22 21 21 21 21 21 20 20 19 20 20
18 18 17 17 16 16 16 15 15 14 14 14 14 13 13 12 11 12 13 13 13 13 13 12 11 10 10 10 9 8 8 8 9 10 10 12 14 15 16 18 20 21 25 27 24 21 21 20 19 20 21 22 22 22 22 23 24 24 25 26 26 26 26 28 29 31 32 32 30 29 27 26 25 24 23 22 22 21 21 21 21 20 21 20 20
19 19 19 18 17 17 16 15 15 15 15 15 14 14 13 13 13 12 12 11 12 13 15 16 15 13 12 12 11 9 8 9 9 9 10 11 12 14 15 15 17 19 21 22 21 22 22 22 21 22 22 22 22 23 23 24 25 25 26 25 25 25 26 27 30 31 31 31 30 28 27 26 26 26 25 24 23 23 22 22 22 22 22 21 20
20 20 20 19 18 17 16 16 16 15 15 15 14 14 14 14 13 13 13 12 11 12 14 15 15 13 11 10 10 9 8 8 9 9 10 11 12 14 15 14 13 13 15 15 14 17 20 21 22 23 23 23 23 23 24 25 25 26 27 27 27 27 27 28 30 31 30 29 28 27 26 26 26 26 26 25 24 24 23 22 22 22 22 21 19
20 19 19 18 18 17 16 16 16 15 15 15 15 15 15 14 14 13 13 13 12 12 13 14 15 14 12 12 11 10 8 8 8 9 9 11 12 14 15 14 12 12 12 12 11 14 17 19 21 23 23 23 24 24 24 25 26 26 25 26 27 28 29 30 31 30 30 29 27 27 27 26 26 27 27 26 24 23 22 21 21 21 21 20 19
18 17 17 16 17 17 17 16 16 15 15 16 15 15 15 15 14 14 13 12 12 12 13 14 14 14 14 15 15 14 12 10 10 10 11 11 12 14 15 15 14 13 13 12 11 14 17 19 21 22 23 24 24 25 25 25 26 26 26 26 27 28 28 28 29 29 29 29 28 28 27 27 27 28 29 28 26 24 22 21 21 21 21 20 20
17 16 16 16 16 16 16 16 16 16 16 16 16 16 15 15 14 14 13 12 12 12 12 13 13 13 13 15 16 15 14 12 11 11 11 11 12 14 15 14 13 13 13 13 13 14 16 19 20 21 22 23 23 24 25 25 26 27 27 27 27 27 27 28 29 29 29 29 29 29 28 28 28 28 29 28 26 24 22 22 23 23 22 22 22
16 16 16 16 16 16 15 16 16 16 16 16 15 15 14 14 13 13 12 12 11 12 12 12 13 13 14 15 15 14 13 12 12 12 12 12 12 13 13 13 12 12 12 13 14 15 16 18 20 21 22 22 23 24 25 26 26 27 28 29 29 30 30 31 31 31 31 30 30 29 29 28 28 28 28 28 26 24 23 23 23 24 23 23 22
16 15 15 15 15 15 15 15 15 15 14 14 14 14 13 13 13 12 12 12 12 12 13 13 14 14 14 14 13 12 11 12 14 14 14 14 14 14 14 13 12 11 11 12 13 15 16 17 19 21 22 23 24 25 26 27 28 28 29 30 31 31 31 31 31 31 31 30 30 29 28 28 28 28 28 27 25 23 23 23 23 23 23 22 21
16 15 15 15 15 15 15 14 13 13 13 13 13 13 12 12 12 12 12 12 12 13 13 14 15 16 15 14 13 12 11 12 14 15 16 16 16 16 16 15 14 12 11 11 12 14 15 17 18 20 21 23 25 27 28 29 30 30 30 30 30 30 30 30 30 30 30 29 29 28 28 27 27 27 27 25 24 23 23 23 22 22 22 21 21
15 15 15 15 15 15 14 14 14 14 14 13 13 13 12 12 12 12 12 12 13 13 13 14 16 17 16 16 14 13 13 13 14 15 16 17 17 18 17 16 15 14 13 11 11 12 13 15 17 18 20 22 24 26 28 29 30 30 30 29 29 29 29 28 29 29 28 28 28 27 27 27 26 26 25 24 23 23 23 23 22 22 22 22 20
16 16 15 15 15 15 14 14 15 15 14 14 14 14 14 14 14 14 13 13 14 14 14 15 16 17 18 17 17 16 16 15 15 15 16 17 18 18 18 17 17 16 15 14 13 12 13 14 15 16 17 19 20 22 24 26 27 27 28 28 28 28 28 28 28 28 28 28 28 27 26 26 25 25 24 24 23 23 23 23 23 23 22 21 20
15 16 16 15 15 15 15 15 15 15 15 15 15 15 15 15 14 14 14 14 14 15 15 16 16 16 17 17 17 17 17 17 16 17 17 17 18 19 19 18 18 18 18 18 17 16 15 15 16 16 17 17 18 19 20 22 23 24 24 25 26 27 27 27 27 27 28 28 28 28 27 26 26 25 25 25 24 24 24 24 23 23 22 21 21
15 15 15 15 16 16 16 16 16 16 16 15 15 15 15 15 15 15 14 14 15 15 15 16 16 16 17 17 17 17 17 18 18 18 18 18 19 19 19 19 19 19 19 19 18 18 18 18 18 18 18 19 19 19 20 21 22 23 23 24 25 25 25 26 26 27 27 28 28 27 27 27 26 26 26 25 25 24 24 23 23 22 22 22 22
16 16 16 15 16 16 16 16 17 17 16 16 15 15 15 16 16 15 15 16 16 16 16 17 17 17 18 18 18 18 18 19 19 19 19 19 19 19 19 19 19 19 20 19 19 19 18 18 18 19 19 19 20 20 21 21 22 23 24 24 24 25 24 24 25 25 25 25 26 26 26 26 26 26 26 25 24 24 23 22 22 22 22 21 20
17 17 16 16 16 16 16 16 16 16 16 16 16 16 16 16 17 17 17 17 17 17 18 18 18 19 19 19 19 20 20 20 20 20 20 20 20 20 20 19 19 19 19 20 20 19 19 18 18 18 18 19 20 20 20 21 22 22 23 24 24 24 23 23 23 23 23 23 23 24 24 25 26 26 25 25 25 24 23 23 22 22 21 20 19
17 17 16 16 15 15 15 15 15 16 16 16 16 17 17 17 17 18 18 18 18 18 18 19 19 20 20 20 20 21 20 21 21 21 21 21 21 21 21 20 20 19 19 20 20 20 20 20 19 19 18 19 19 20 20 21 21 21 22 22 22 22 22 22 22 22 22 23 23 24 24 24 24 24 25 25 24 24 23 23 22 21 20 19 18
17 17 17 16 16 16 17 16 16 17 17 16 16 17 18 17 18 19 19 19 20 20 20 20 21 21 21 21 22 22 22 22 22 22 22 22 22 22 22 21 21 21 21 20 20 21 21 20 20 20 19 19 19 20 21 21 21 21 20 20 20 21 21 21 21 21 22 23 23 24 24 24 24 24 24 24 23 23 23 22 21 20 19 19 18
18 17 17 17 18 17 18 17 18 18 18 17 17 18 18 19 19 20 20 20 21 21 21 22 22 22 22 22 22 22 23 23 23 23 23 23 23 22 22 22 22 22 22 22 22 21 21 21 21 21 20 20 20 20 21 21 21 20 19 19 20 20 21 21 21 21 22 22 23 23 23 24 24 24 24 24 23 23 23 22 21 19 19 18 17
Wind_Direction
230 230 231 230 229 228 229 231 231 231 232 232 233 235 237 239 242 244 244 243 243 244 244 245 246 246 244 243 242 241 240 239 237 236 235 235 234 233 232 229 228 227 225 222 220 219 219 218 217 215 213 211 209 207 207 208 209 208 207 207 207 206 200 181 146 134 175 191 192 187 186 185 183 186 186 181 177 175 175 174 170 167 164 154 143
230 231 231 230 229 229 230 231 231 231 231 231 233 234 237 239 241 242 242 242 243 244 245 245 245 244 243 243 242 241 241 240 238 236 235 234 232 231 230 228 227 225 223 223 221 218 217 216 216 214 211 211 210 209 208 208 209 208 206 207 207 206 203 187 159 139 155 176 186 185 184 187 185 183 187 185 178 177 176 174 172 171 170 164 155
232 232 231 231 231 231 231 230 230 230 230 231 232 234 237 239 240 240 241 243 244 244 245 245 244 243 243 243 242 241 241 240 238 236 235 234 232 231 230 227 226 225 224 223 221 218 216 215 215 213 211 209 209 208 208 208 208 208 207 208 208 207 206 199 184 161 154 165 180 182 180 185 187 183 184 185 179 178 177 175 173 172 169 166 158
233 232 231 232 233 232 231 230 229 230 230 231 233 235 236 238 238 239 241 242 243 244 244 244 243 242 242 242 242 242 241 239 238 237 236 235 233 232 231 229 227 227 226 225 223 220 217 216 215 214 210 209 208 208 207 207 208 209 208 209 210 209 207 205 203 185 166 163 177 183 180 181 186 184 181 180 178 177 176 175 174 172 170 168 161
232 231 230 231 231 231 231 230 229 230 230 232 234 235 237 237 239 240 240 241 243 244 244 242 241 241 241 242 242 242 242 240 238 238 237 236 235 233 232 231 230 229 228 228 226 223 221 219 218 215 211 210 209 208 207 207 208 208 209 210 211 211 208 205 207 201 183 171 172 180 184 182 183 184 184 180 174 173 174 174 175 174 173 172 170
230 230 229 229 229 229 230 229 230 231 232 234 236 237 239 239 240 241 241 242 243 243 242 241 241 241 242 244 243 243 243 241 240 240 239 237 235 234 234 233 232 231 230 229 228 227 225 223 221 218 215 213 212 211 209 208 208 207 209 210 209 209 207 204 204 201 191 180 174 176 183 185 182 182 186 186 180 175 173 171 173 176 176 176 178
231 231 230 230 230 230 230 231 232 234 236 238 239 239 240 240 241 242 243 243 243 242 241 241 242 243 244 244 244 244 243 242 241 240 239 237 235 234 233 233 233 233 232 231 230 229 228 226 225 223 221 219 218 216 212 209 209 209 209 209 208 205 203 200 199 195 186 179 175 175 180 184 185 183 185 187 185 183 180 173 171 177 181 181 182
233 232 232 233 234 235 235 236 236 238 239 239 240 240 240 241 242 242 242 242 242 242 242 242 243 244 244 244 244 243 241 240 240 239 237 236 235 234 233 233 233 232 232 232 231 231 230 229 228 228 226 225 223 221 219 214 211 210 209 209 207 204 200 196 192 189 182 177 176 176 176 179 184 184 183 183 183 187 187 180 176 179 181 183 184
232 231 231 234 236 237 238 238 238 239 239 238 239 240 240 241 241 241 241 241 242 242 242 242 242 242 242 241 241 240 238 238 239 238 237 235 234 234 233 233 233 232 232 232 232 232 232 230 230 230 229 227 226 225 225 222 217 214 211 209 206 202 199 194 189 184 179 175 174 174 174 177 181 180 181 186 188 188 186 181 178 179 177 175 181
230 228 229 233 236 236 236 236 236 237 237 238 239 239 239 240 240 240 241 241 242 242 241 241 241 241 240 240 239 238 238 239 239 239 238 237 235 234 232 231 232 231 230 231 231 231 231 231 230 230 229 227 226 226 226 224 223 222 219 215 210 204 198 193 191 188 182 178 176 175 176 182 185 184 185 189 190 186 183 181 175 172 169 164 171
228 228 231 235 236 234 234 234 235 236 236 238 238 239 239 239 239 241 241 242 242 242 240 241 241 241 241 240 239 238 239 239 240 240 239 238 236 233 232 231 230 230 229 229 230 230 230 230 229 229 228 226 225 226 226 225 224 223 224 222 217 213 207 200 196 192 187 183 182 182 182 185 188 188 187 186 186 184 183 182 176 171 169 164 163
229 231 235 237 235 234 234 234 235 237 237 238 238 239 239 239 241 241 242 242 242 241 241 242 242 242 242 241 240 239 240 241 241 241 240 239 237 234 233 232 230 229 228 228 229 229 229 228 228 227 227 226 224 224 223 223 223 223 223 222 220 218 216 212 207 200 193 189 186 187 189 187 186 188 188 186 185 182 180 180 179 177 177 176 168
230 233 236 236 235 234 234 234 236 237 238 238 239 238 238 239 240 241 242 242 241 240 241 242 241 241 240 240 240 240 241 243 242 242 241 240 238 236 233 232 231 229 229 228 228 227 226 226 225 225 224 224 222 221 219 218 220 220 221 221 218 216 216 217 215 210 204 198 193 192 195 192 187 190 192 189 184 180 177 179 182 182 182 182 177
229 232 235 235 234 233 232 232 235 237 237 236 236 235 237 239 240 241 241 239 238 239 240 240 240 241 240 240 241 242 242 243 243 242 242 241 239 237 234 233 233 231 230 229 228 227 226 225 223 222 221 219 217 216 215 213 213 213 213 213 212 212 213 213 213 211 209 205 201 199 200 198 195 194 194 191 187 184 182 181 181 182 181 181 181
228 230 231 232 232 230 229 230 232 234 233 233 233 234 236 238 239 239 238 237 238 239 240 240 241 241 240 240 241 242 243 244 244 243 242 241 240 238 235 234 233 233 232 231 229 228 227 226 225 223 219 217 215 213 211 209 206 204 203 203 203 204 205 208 209 208 207 205 205 204 201 200 199 196 191 190 189 187 187 185 182 179 175 173 177
228 228 228 229 229 226 226 227 228 230 230 229 231 234 236 238 238 239 239 239 240 241 241 242 241 241 241 241 241 243 245 244 244 243 242 241 239 236 234 234 233 233 233 231 230 230 229 227 226 224 220 217 215 212 210 207 202 197 194 193 193 194 196 201 205 205 204 203 204 204 202 199 200 198 193 191 190 187 183 180 178 177 172 166 170
231 230 229 230 229 227 227 227 228 230 228 228 232 236 238 240 241 241 240 239 240 241 241 242 242 242 242 241 240 243 244 244 244 243 241 239 236 233 232 233 233 233 233 232 231 231 231 230 227 222 218 215 211 208 207 204 198 193 189 185 183 186 189 193 198 201 203 202 201 202 201 198 197 196 194 193 192 189 182 176 176 179 176 169 173
242 243 242 241 240 236 234 233 233 233 231 232 237 240 241 244 244 243 242 241 242 243 243 244 244 244 243 242 242 244 245 244 244 243 241 238 234 231 231 232 232 233 232 232 232 232 230 228 225 220 216 212 208 205 204 202 199 195 190 185 182 183 184 185 188 190 194 195 193 192 191 189 187 186 188 190 192 195 193 188 187 186 182 180 178
261 263 258 255 253 247 243 242 240 238 238 239 242 244 245 247 248 247 245 245 245 247 246 246 246 246 245 245 245 245 245 245 244 242 240 237 234 231 230 230 231 230 229 228 228 227 224 221 219 218 215 211 206 201 201 204 204 201 197 190 184 183 187 189 186 182 179 177 176 175 174 175 176 175 177 181 186 197 201 196 193 194 190 186 180
274 271 268 264 261 257 254 251 248 245 246 248 249 250 250 250 249 248 247 247 247 248 247 247 248 248 248 248 246 245 245 244 243 242 239 237 234 231 228 228 228 227 225 222 218 216 215 214 212 212 212 209 205 200 200 206 209 207 202 197 192 191 192 191 187 183 178 173 171 172 172 173 174 171 169 171 179 193 199 191 192 200 199 192 189
288 287 284 280 274 271 269 263 258 257 257 258 257 255 254 253 251 249 249 248 247 246 246 246 248 249 249 248 248 247 245 244 243 242 239 237 235 231 228 228 228 225 222 218 214 211 210 208 207 208 208 207 204 201 200 205 209 209 207 206 205 202 197 191 186 183 178 172 170 173 174 175 176 175 176 179 182 190 194 191 195 206 209 204 199
311 309 305 304 299 293 287 276 271 270 268 265 262 259 258 257 254 252 249 247 245 246 246 246 247 249 250 249 248 248 247 245 244 242 239 237 235 231 230 231 230 226 222 218 215 213 212 211 209 207 205 203 202 202 202 202 205 208 210 209 206 202 197 190 182 177 175 173 173 176 176 177 179 180 184 187 187 191 198 200 204 211 216 215 211
332 333 333 335 330 318 308 295 287 283 280 275 270 266 264 260 256 252 248 245 244 245 246 246 247 249 250 249 248 249 247 245 244 241 239 237 234 231 231 233 232 227 222 220 218 216 215 214 211 208 204 201 201 204 205 204 203 206 207 202 196 194 193 186 177 175 178 178 177 178 178 181 183 184 186 189 191 197 204 207 210 213 217 219 221
356 359 358 354 346 337 329 318 309 303 295 288 280 274 269 263 257 252 248 244 243 245 247 247 246 248 250 249 248 247 245 244 243 240 238 237 235 231 231 234 234 229 225 223 221 218 215 213 213 212 208 204 205 206 207 206 206 204 198 191 187 188 187 182 179 180 181 180 180 181 182 185 187 187 188 190 193 197 202 204 208 213 219 224 227
2 6 6 4 356 347 342 336 330 324 312 299 289 280 274 266 259 254 250 246 244 246 249 247 245 246 248 248 247 247 245 243 242 240 238 238 236 233 233 236 236 231 226 224 220 217 215 214 215 215 210 206 206 208 209 210 208 202 192 186 186 187 186 184 184 185 184 184 185 185 185 186 188 189 189 189 192 196 199 202 207 213 218 224 227
15 20 18 15 6 360 357 353 348 343 332 319 304 290 281 273 266 261 255 249 245 246 248 247 246 246 247 249 249 247 245 243 241 240 237 236 238 237 235 237 237 231 225 222 218 214 214 214 215 214 210 207 207 207 208 211 210 202 192 188 187 189 190 190 189 188 188 188 187 185 184 184 185 187 189 188 191 198 204 206 209 213 218 220 222
31 32 28 24 19 16 14 10 8 5 357 349 332 307 292 285 277 268 260 252 247 247 249 248 247 248 250 253 252 248 245 240 236 236 236 235 238 238 236 238 238 228 217 214 210 208 211 212 212 211 207 206 207 207 208 212 210 199 190 188 190 192 195 195 193 193 192 189 186 185 184 184 183 185 187 187 191 202 209 209 209 213 218 220 222
40 39 37 34 30 29 27 24 24 22 18 18 14 359 339 321 305 291 281 269 258 258 262 259 257 258 257 255 250 244 239 235 233 237 239 237 238 237 236 239 236 221 208 206 205 205 207 207 206 205 203 204 206 207 208 210 205 194 189 190 191 192 193 193 192 193 192 189 187 184 183 183 184 185 187 190 197 207 210 209 210 214 218 219 221
41 39 37 34 32 32 31 29 30 31 31 35 37 34 25 11 358 1 343 321 298 286 286 280 274 271 266 258 247 236 237 242 246 248 247 244 242 239 236 237 233 220 208 204 203 199 197 197 197 196 197 200 203 205 205 202 194 190 190 190 188 187 188 188 188 190 190 188 186 184 183 183 184 188 193 197 203 208 210 211 213 214 215 219 225
38 37 35 33 31 30 30 31 33 33 33 35 38 39 34 23 11 358 339 329 318 305 298 292 286 280 273 265 255 248 251 258 261 259 254 250 247 243 239 238 234 224 212 202 197 194 191 190 193 194 194 196 200 203 202 194 187 187 189 188 186 185 186 188 189 189 188 188 187 185 184 185 188 193 198 200 202 206 211 215 217 216 217 220 226
42 39 36 36 35 34 35 36 35 34 33 31 25 18 13 11 10 6 355 343 334 326 318 310 302 292 283 277 271 264 262 262 263 260 256 250 246 242 241 238 231 221 209 196 191 192 190 189 192 194 195 197 199 202 201 194 189 187 186 185 186 186 187 189 189 188 186 185 185 185 187 191 195 198 201 201 202 206 211 214 216 218 221 223 225
49 42 38 39 40 40 41 39 35 33 30 26 23 19 11 4 1 0 1 0 354 348 345 338 329 317 301 290 283 280 275 268 261 258 255 251 245 242 243 241 231 216 204 195 193 194 192 192 193 194 195 198 200 202 202 198 194 190 187 185 187 189 190 191 190 187 185 182 182 185 190 194 197 199 201 201 202 205 209 212 215 217 220 223 226
50 43 40 40 41 41 41 40 38 35 32 28 25 24 20 14 3 353 353 358 0 1 3 356 346 337 324 310 298 289 287 281 270 260 256 253 248 243 244 246 238 218 201 195 197 197 194 195 196 195 195 199 201 202 203 201 198 194 191 189 189 191 192 191 188 186 184 183 185 189 192 194 196 197 197 199 202 204 208 211 215 216 216 220 224
53 49 46 45 44 42 40 40 39 37 36 33 28 25 22 18 11 1 357 358 357 357 0 0 356 349 339 332 325 309 296 293 287 277 269 262 256 249 246 249 248 231 210 200 199 198 195 196 198 198 199 201 202 202 202 201 199 197 194 192 191 190 189 189 187 185 184 186 189 191 193 195 196 195 196 198 200 203 207 211 212 214 216 219 223
53 51 48 46 46 43 41 41 39 36 34 33 29 25 22 18 15 13 10 5 359 353 351 351 352 351 343 335 332 325 312 307 304 296 288 279 268 259 254 253 251 242 227 214 205 198 195 196 197 199 201 203 203 202 200 199 198 197 194 192 189 187 186 186 185 185 186 188 191 194 195 196 198 200 200 200 200 202 207 210 213 218 221 224 226
48 46 44 42 42 42 40 39 38 34 32 30 27 25 24 20 18 16 11 9 6 357 349 345 345 346 343 334 327 321 310 307 310 307 301 295 284 271 263 261 256 248 242 235 218 202 199 199 199 200 202 203 203 202 200 199 198 197 195 192 189 187 186 186 186 188 190 192 195 197 198 199 202 203 203 204 207 209 212 216 219 224 227 227 229
45 41 39 37 39 40 38 37 36 32 31 29 25 23 22 20 18 16 12 9 6 359 351 348 347 346 343 338 335 329 313 301 301 299 293 291 288 281 274 271 264 255 251 246 228 209 204 205 205 204 205 204 203 202 201 200 198 196 194 192 191 191 191 191 191 193 195 197 199 202 202 204 206 206 205 206 209 210 214 220 222 225 229 230 230
47 42 37 36 37 37 35 34 33 30 29 28 24 21 19 16 14 14 10 5 2 358 353 351 351 350 343 335 333 333 326 315 303 293 283 278 280 284 285 280 268 255 250 249 237 219 211 210 211 211 209 206 203 202 200 198 197 195 194 193 195 196 196 195 197 199 201 202 204 205 207 208 209 209 208 209 209 210 215 220 222 223 225 225 225
44 42 38 36 36 36 33 31 30 27 25 23 20 18 16 13 10 8 4 358 355 354 352 349 347 346 341 333 332 335 334 329 319 309 298 287 280 282 286 285 275 261 252 248 243 232 221 215 214 214 212 208 205 202 200 198 197 196 196 196 196 196 197 198 200 203 204 206 207 208 208 209 210 210 210 210 211 213 217 221 223 223 222 223 225
35 36 34 32 32 32 31 30 28 25 23 20 17 15 13 10 5 0 356 353 349 348 349 345 339 337 336 333 333 336 335 326 318 312 307 301 293 289 288 286 279 269 259 250 244 239 230 222 217 216 214 211 208 205 204 202 200 200 200 199 199 200 201 202 205 206 207 208 208 208 209 209 210 210 210 210 213 218 221 224 226 225 224 227 229
29 29 28 27 26 24 24 25 24 22 20 17 15 13 8 3 360 355 352 351 346 342 340 336 332 332 333 331 330 332 326 317 310 306 303 300 297 293 292 291 286 278 269 260 250 243 238 230 224 219 216 214 212 210 208 207 206 204 203 202 202 203 204 205 207 208 208 208 208 208 210 211 211 210 210 211 215 219 222 224 224 223 225 228 229
25 23 21 21 20 18 20 19 16 14 13 11 9 8 2 356 354 353 348 345 343 339 334 331 331 333 333 331 330 326 317 310 307 304 301 300 298 295 293 293 291 287 280 271 261 252 245 239 233 226 221 217 215 212 210 209 209 208 207 206 205 205 205 206 208 209 209 209 210 211 212 213 212 212 212 213 215 217 218 219 219 221 223 225 226
19 17 15 15 15 14 14 11 7 5 5 2 358 357 354 351 350 349 345 341 338 335 331 328 329 331 332 332 331 327 318 311 307 303 300 299 297 296 295 293 291 289 284 276 268 260 251 244 237 231 226 222 219 216 214 213 212 211 210 209 209 209 209 209 209 209 210 211 212 214 214 213 212 211 211 213 216 216 216 217 217 219 221 223 225
11 10 8 7 6 5 4 3 1 358 355 352 348 347 348 347 346 344 343 339 335 333 330 327 327 328 329 330 330 327 323 318 312 306 302 299 297 295 295 293 291 288 284 278 272 263 256 250 244 237 232 227 223 221 220 219 218 216 215 213 212 212 212 213 213 214 215 216 216 215 214 212 211 211 212 215 216 215 213 214 215 216 219 221 223
4 4 2 359 358 356 354 355 354 351 348 346 344 343 343 343 341 340 338 333 330 327 325 324 324 323 323 324 325 323 320 318 314 309 305 303 300 299 298 296 294 290 287 283 278 271 264 259 253 247 243 237 232 229 227 225 224 224 223 222 221 220 220 222 223 223 223 221 219 217 214 211 212 214 215 216 216 214 213 213 214 215 217 219 221
356 355 354 352 349 347 344 344 343 342 342 341 338 336 336 335 333 332 329 326 323 321 319 318 319 317 316 316 317 315 314 313 311 309 308 305 304 302 301 300 297 294 291 288 284 279 273 267 261 256 252 248 243 238 235 231 230 229 229 229 229 229 229 230 229 228 226 224 222 219 216 214 215 217 217 216 214 213 213 214 215 216 218 221 224
343 342 340 339 337 334 331 331 331 330 330 329 328 327 326 325 323 322 320 318 316 314 312 312 312 312 311 311 311 311 311 310 308 307 307 306 305 305 304 302 299 296 294 291 288 284 279 274 268 263 258 254 250 244 239 236 233 231 230 229 229 229 229 229 229 229 228 226 224 221 219 217 217 215 215 213 211 210 212 213 216 219 221 222 226
331 329 327 326 324 321 319 320 320 319 318 318 317 316 314 313 312 311 311 311 310 309 309 309 308 308 308 308 308 309 308 307 306 306 305 305 305 306 305 304 301 299 296 292 288 285 281 277 274 269 264 259 254 248 243 239 235 232 231 229 227 227 226 224 224 225 224 223 222 221 219 219 217 214 212 212 210 211 213 214 216 219 221 221 225
321 319 318 316 314 311 310 310 309 308 307 307 306 305 304 304 304 303 304 305 305 304 304 304 305 306 306 305 306 307 306 305 304 304 304 304 305 305 304 304 302 299 296 292 289 286 283 279 276 272 267 262 257 253 249 245 239 236 233 229 226 225 224 222 221 221 219 217 217 215 214 215 215 213 213 213 212 212 214 215 216 218 219 221 225
314 312 311 309 306 305 305 303 301 301 301 301 300 301 301 301 301 302 304 304 304 304 304 304 304 304 304 303 303 304 303 302 301 300 301 301 302 302 302 301 300 298 296 293 290 287 284 280 276 272 268 264 259 255 252 249 245 240 236 231 227 225 222 220 219 218 215 213 213 211 210 211 211 211 212 212 211 212 214 215 216 218 219 221 225
310 308 307 304 302 302 302 301 300 301 301 302 302 302 302 303 302 303 303 303 302 302 303 303 303 302 302 302 302 301 300 300 299 298 298 298 298 298 298 297 296 296 295 293 291 289 284 281 278 273 269 265 261 257 254 251 248 244 239 234 229 225 222 219 217 215 214 213 212 211 209 209 209 209 209 209 209 212 214 215 216 219 220 221 223